Mount Pleasant, IA

10:03 PM CDT on May 25, 2017 (GMT -0500)
Mount Pleasant Municipal

Weather History for KMPZ - June, 2013

Change the Weather History Date:

Wednesday, June 26, 2013

  Actual Average Record
Temperature  
Mean Temperature 78 °F -  
Max Temperature 86 °F 84 °F 96 °F (1963)
Min Temperature 69 °F 62 °F 48 °F (2012)
Cooling Degree Days 12    
Growing Degree Days 28 (Base 50)    
Moisture  
Dew Point 71 °F    
Average Humidity 79    
Maximum Humidity 93    
Minimum Humidity 64    
Precipitation  
Precipitation 4.05 in - - ()
Sea Level Pressure  
Sea Level Pressure 29.76 in    
Wind  
Wind Speed 8 mph (SW)    
Max Wind Speed 20 mph    
Max Gust Speed 36 mph    
Visibility 9 miles    
Events Rain    
Averages and records for this station are not official NWS values.
T = Trace of Precipitation, MM = Missing Value Source: NWS Daily Summary

Daily Weather History Graph

Daily Weather History Graph

Search for Another Location

Airport or City:

Trip Planner

Search our weather history database for the weather conditions in past years. The results will help you decide how hot, cold, wet, or windy it might be!

Date:

Astronomy

Jun. 26, 2013 Rise Set
Actual Time 5:35 AM CDT 8:42 PM CDT
Civil Twilight 5:02 AM CDT 9:15 PM CDT
Nautical Twilight 4:19 AM CDT 9:58 PM CDT
Astronomical Twilight 3:28 AM CDT 10:49 PM CDT
Moon 11:03 PM CDT 9:29 AM CDT
Length of Visible Light 16h 13m
Length of Day
15h 06m
Waning Gibbous, 85% of the Moon is Illuminated
Jun 26
Waning Gibbous
Jun 29
Last Quarter
Jul 8
New
Jul 15
First Quarter
Jul 22
Full

Hourly Weather History & Observations

Time (CDT) Temp. Heat Index Dew Point Humidity Pressure Visibility Wind Dir Wind Speed Gust Speed Precip Events Conditions
12:15 AM 76.5 °F - 72.0 °F 86% 29.77 in 10.0 mi SSE 9.2 mph - N/A   Clear
12:35 AM 76.6 °F - 71.8 °F 85% 29.76 in 10.0 mi SE 10.4 mph - N/A   Clear
12:55 AM 75.9 °F - 71.6 °F 86% 29.76 in 10.0 mi SSE 9.2 mph - N/A   Clear
1:15 AM 76.1 °F - 71.6 °F 86% 29.75 in 10.0 mi SSE 11.5 mph - N/A   Clear
1:35 AM 75.7 °F - 71.6 °F 87% 29.75 in 10.0 mi SSE 9.2 mph - N/A   Clear
1:55 AM 75.4 °F - 71.2 °F 87% 29.75 in 10.0 mi SSE 8.1 mph - N/A   Clear
2:15 AM 74.8 °F - 71.1 °F 88% 29.74 in 10.0 mi SE 5.8 mph - N/A   Clear
2:35 AM 74.3 °F - 70.9 °F 89% 29.73 in 10.0 mi SE 9.2 mph - N/A   Clear
2:55 AM 74.3 °F - 71.1 °F 90% 29.73 in 10.0 mi SSE 10.4 mph - N/A   Scattered Clouds
3:15 AM 75.2 °F - 71.1 °F 87% 29.71 in 10.0 mi SSE 11.5 mph - N/A   Scattered Clouds
3:35 AM 74.7 °F - 70.9 °F 88% 29.72 in 10.0 mi South 10.4 mph - N/A   Clear
3:55 AM 74.8 °F - 70.9 °F 87% 29.72 in 10.0 mi South 9.2 mph - N/A   Clear
4:35 AM 75.7 °F - 69.8 °F 82% 29.72 in 10.0 mi South 9.2 mph - N/A   Scattered Clouds
4:55 AM 75.4 °F - 70.0 °F 83% 29.72 in 10.0 mi South 10.4 mph - N/A   Mostly Cloudy
5:36 AM 69.8 °F - 66.2 °F 88% 29.77 in 10.0 mi North 19.6 mph 35.7 mph N/A Rain Light Rain
5:55 AM 70.0 °F - 67.6 °F 92% 29.79 in 0.8 mi Calm Calm - N/A Rain Heavy Rain
6:15 AM 70.5 °F - 68.2 °F 92% 29.80 in 5.0 mi South 12.7 mph - 0.01 in Rain Light Rain
6:35 AM 69.4 °F - 67.3 °F 93% 29.79 in 10.0 mi SSE 9.2 mph - 0.01 in Rain Light Rain
6:55 AM 70.2 °F - 68.0 °F 93% 29.78 in 10.0 mi SE 3.5 mph - 0.01 in   Overcast
7:15 AM 70.7 °F - 68.4 °F 92% 29.77 in 10.0 mi South 3.5 mph - N/A   Overcast
7:35 AM 70.9 °F - 68.0 °F 91% 29.78 in 10.0 mi South 5.8 mph - N/A Rain Light Rain
7:55 AM 71.1 °F - 68.0 °F 90% 29.77 in 10.0 mi SSW 3.5 mph - 0.01 in   Overcast
8:15 AM 71.6 °F - 68.4 °F 89% 29.77 in 10.0 mi South 5.8 mph - 0.30 in   Overcast
8:35 AM 72.7 °F - 68.4 °F 86% 29.76 in 7.0 mi South 8.1 mph - 0.87 in   Overcast
8:55 AM 73.0 °F - 68.2 °F 85% 29.75 in 10.0 mi South 9.2 mph - 1.12 in   Overcast
9:15 AM 73.0 °F - 67.6 °F 83% 29.75 in 7.0 mi South 6.9 mph - 0.25 in   Overcast
9:55 AM 74.5 °F - 68.9 °F 83% 29.77 in 10.0 mi South 6.9 mph - 1.26 in   Overcast
10:15 AM 75.4 °F - 68.7 °F 80% 29.77 in 7.0 mi South 8.1 mph - 0.60 in   Overcast
10:35 AM 77.2 °F - 69.4 °F 77% 29.77 in 10.0 mi South 6.9 mph - 1.21 in   Overcast
10:55 AM 79.0 °F - 69.4 °F 72% 29.77 in 10.0 mi South 10.4 mph - 1.29 in   Scattered Clouds
11:15 AM 79.7 °F - 69.4 °F 71% 29.78 in 10.0 mi South 10.4 mph - N/A   Clear
11:35 AM 80.6 °F 83.6 °F 69.3 °F 68% 29.78 in 10.0 mi SSW 9.2 mph - N/A   Clear
11:55 AM 80.1 °F 82.9 °F 68.9 °F 69% 29.77 in 10.0 mi SSW 10.4 mph - 0.24 in   Clear
12:15 PM 80.6 °F 83.8 °F 69.4 °F 69% 29.77 in 10.0 mi South 9.2 mph - N/A   Scattered Clouds
12:35 PM 81.5 °F 85.1 °F 70.2 °F 68% 29.76 in 10.0 mi SSW 10.4 mph - N/A   Scattered Clouds
12:55 PM 82.0 °F 86.7 °F 71.6 °F 71% 29.75 in 10.0 mi SSW 10.4 mph - N/A   Clear
1:15 PM 81.9 °F 86.0 °F 70.7 °F 69% 29.75 in 10.0 mi SSW 11.5 mph - N/A   Scattered Clouds
1:35 PM 82.9 °F 87.7 °F 71.6 °F 68% 29.76 in 10.0 mi SSW 11.5 mph - N/A   Scattered Clouds
1:55 PM 83.3 °F 88.4 °F 71.6 °F 68% 29.76 in 10.0 mi SW 6.9 mph - N/A   Scattered Clouds
2:15 PM 85.1 °F 91.5 °F 72.7 °F 66% 29.76 in 7.0 mi SW 6.9 mph - N/A   Mostly Cloudy
2:35 PM 84.6 °F 91.0 °F 72.9 °F 68% 29.76 in 10.0 mi WSW 8.1 mph - N/A   Mostly Cloudy
2:55 PM 85.6 °F 91.8 °F 72.1 °F 64% 29.75 in 10.0 mi WSW 8.1 mph - N/A   Mostly Cloudy
3:15 PM 85.6 °F 92.2 °F 72.5 °F 65% 29.75 in 10.0 mi West 9.2 mph - N/A   Mostly Cloudy
3:35 PM 85.8 °F 93.0 °F 73.4 °F 66% 29.75 in 10.0 mi WSW 8.1 mph - N/A   Scattered Clouds
3:55 PM 85.1 °F 91.8 °F 73.2 °F 67% 29.76 in 7.0 mi West 5.8 mph - N/A   Mostly Cloudy
4:15 PM 86.5 °F 93.8 °F 73.0 °F 64% 29.75 in 10.0 mi WSW 6.9 mph - N/A   Scattered Clouds
4:35 PM 84.6 °F 91.0 °F 72.9 °F 68% 29.75 in 10.0 mi West 6.9 mph - N/A   Scattered Clouds
4:55 PM 83.8 °F 90.8 °F 74.1 °F 72% 29.75 in 10.0 mi West 4.6 mph - N/A   Scattered Clouds
5:15 PM 84.2 °F 90.6 °F 73.0 °F 69% 29.75 in 7.0 mi WNW 5.8 mph - N/A   Clear
5:35 PM 84.4 °F 91.0 °F 73.2 °F 69% 29.76 in 7.0 mi NW 3.5 mph - N/A   Clear
5:55 PM 85.5 °F 92.6 °F 73.2 °F 67% 29.76 in 7.0 mi NNW 4.6 mph - N/A   Clear
6:15 PM 86.4 °F 93.8 °F 73.2 °F 65% 29.77 in 7.0 mi WNW 5.8 mph - N/A   Clear
6:35 PM 86.4 °F 94.2 °F 73.6 °F 66% 29.76 in 7.0 mi NW 4.6 mph - N/A   Clear
6:55 PM 86.0 °F 93.0 °F 73.2 °F 65% 29.76 in 10.0 mi WNW 5.8 mph - 0.02 in   Clear
7:15 PM 85.6 °F 93.0 °F 73.6 °F 67% 29.75 in 7.0 mi West 3.5 mph - 0.10 in   Clear
7:35 PM 84.6 °F 92.1 °F 74.3 °F 71% 29.76 in 7.0 mi West 4.6 mph - 0.10 in   Clear
7:55 PM 83.5 °F 91.6 °F 75.6 °F 77% 29.75 in 7.0 mi WSW 3.5 mph - 0.10 in   Clear
8:15 PM 82.4 °F 90.1 °F 76.1 °F 81% 29.75 in 7.0 mi WSW 5.8 mph - N/A   Clear
8:35 PM 81.1 °F 87.4 °F 75.6 °F 83% 29.75 in 7.0 mi WSW 4.6 mph - N/A   Clear
8:55 PM 80.4 °F 85.8 °F 75.0 °F 84% 29.76 in 10.0 mi West 4.6 mph - N/A   Clear
9:15 PM 80.4 °F 85.3 °F 74.1 °F 81% 29.77 in 10.0 mi West 4.6 mph - N/A   Scattered Clouds
9:35 PM 78.8 °F - 74.1 °F 85% 29.78 in 10.0 mi West 3.5 mph - N/A   Clear
9:55 PM 77.9 °F - 73.8 °F 87% 29.79 in 10.0 mi West 3.5 mph - N/A   Clear
10:15 PM 77.9 °F - 73.4 °F 86% 29.80 in 10.0 mi WSW 4.6 mph - N/A   Clear
10:35 PM 77.4 °F - 73.4 °F 88% 29.80 in 10.0 mi West 4.6 mph - N/A   Clear
10:55 PM 77.0 °F - 73.0 °F 88% 29.80 in 10.0 mi West 5.8 mph - N/A   Clear
11:15 PM 77.0 °F - 73.0 °F 88% 29.81 in 10.0 mi West 5.8 mph - N/A   Clear
11:35 PM 76.6 °F - 72.7 °F 87% 29.81 in 10.0 mi West 5.8 mph - N/A   Clear
11:55 PM 76.5 °F - 72.3 °F 87% 29.81 in 10.0 mi West 4.6 mph - N/A   Clear